This is the latest recevied weather packets stored in our database for station/object KC7UNY-13. If no packets are shown the sender has not sent any weather packets the latest 10 day(s).
| Time | Temp. | Humidity | Pressure | Rain* | Wind** | Luminosity | Snow |
|---|---|---|---|---|---|---|---|
| 1777305237 | 21.11° C | 32% | 1014.4 hPa | 0 mm | - | 398 W/m² | - |
| 1777304931 | 20° C | 33% | 1014.4 hPa | 0 mm | - | 381 W/m² | - |
| 1777304628 | 20° C | 34% | 1014.4 hPa | 0 mm | - | 365 W/m² | - |
| 1777304325 | 20° C | 34% | 1014.3 hPa | 0 mm | - | 347 W/m² | - |
| 1777304022 | 20.56° C | 33% | 1014.5 hPa | 0 mm | - | 331 W/m² | - |
| 1777303718 | 21.67° C | 32% | 1014.4 hPa | 0 mm | - | 316 W/m² | - |
| 1777303416 | 20° C | 33% | 1014.3 hPa | 0 mm | - | 299 W/m² | - |
| 1777303114 | 19.44° C | 35% | 1014.3 hPa | 0 mm | - | 284 W/m² | - |
| 1777302812 | 20° C | 34% | 1014.3 hPa | 0 mm | - | 268 W/m² | - |
| 1777302509 | 18.89° C | 34% | 1014.2 hPa | 0 mm | - | 249 W/m² | - |
| 1777302207 | 20° C | 33% | 1014.3 hPa | 0 mm | - | 236 W/m² | - |
| 1777301904 | 20° C | 33% | 1014.2 hPa | 0 mm | - | 221 W/m² | - |
| 1777301601 | 18.89° C | 36% | 1014.3 hPa | 0 mm | - | 207 W/m² | - |
| 1777301298 | 18.89° C | 36% | 1014.5 hPa | 0 mm | - | 193 W/m² | - |
| 1777300995 | 18.89° C | 37% | 1014.4 hPa | 0 mm | - | 179 W/m² | - |
| 1777300693 | 18.33° C | 36% | 1014.3 hPa | 0 mm | - | 166 W/m² | - |
| 1777300390 | 18.89° C | 37% | 1014 hPa | 0 mm | - | 153 W/m² | - |
| 1777300087 | 18.33° C | 38% | 1014.1 hPa | 0 mm | - | 143 W/m² | - |
| 1777299783 | 17.78° C | 39% | 1014 hPa | 0 mm | - | 131 W/m² | - |
| 1777299481 | 18.33° C | 38% | 1014.1 hPa | 0 mm | - | 120 W/m² | - |
| 1777299179 | 17.22° C | 40% | 1014.2 hPa | 0 mm | - | 109 W/m² | - |
| 1777298876 | 15.56° C | 42% | 1014 hPa | 0 mm | - | 99 W/m² | - |
| 1777298573 | 15° C | 44% | 1013.8 hPa | 0 mm | - | 89 W/m² | - |
| 1777298269 | 15.56° C | 43% | 1014 hPa | 0 mm | - | 80 W/m² | - |
| 1777297964 | 15.56° C | 43% | 1014 hPa | 0 mm | - | 71 W/m² | - |
* Rain latest hour (hover to see other rain measurements)
** Current wind speed in m/s (hover to see current wind gust speed)